This is the latest recevied weather packets stored in our database for station/object IW8ELN-10. If no packets are shown the sender has not sent any weather packets the latest 10 day(s).
| Time | Temp. | Humidity | Pressure | Rain* | Wind** | Luminosity | Snow |
|---|---|---|---|---|---|---|---|
| 1777495374 | 15° C | 60% | 990 hPa | - | - | - | - |
| 1777491767 | 15° C | 62% | 989.7 hPa | - | - | - | - |
| 1777488167 | 15.56° C | 58% | 988.5 hPa | - | - | - | - |
| 1777480967 | 17.22° C | 48% | 987.6 hPa | - | - | - | - |
| 1777477367 | 17.78° C | 45% | 987.6 hPa | - | - | - | - |
| 1777473774 | 17.78° C | 45% | 987.8 hPa | - | - | - | - |
| 1777470166 | 17.78° C | 44% | 988.1 hPa | - | - | - | - |
| 1777466573 | 6.11° C | 43% | 970.8 hPa | - | - | - | - |
| 1777462966 | 15° C | 53% | 988.4 hPa | - | - | - | - |
| 1777459366 | 14.44° C | 54% | 989.1 hPa | - | - | - | - |
| 1777455766 | 14.44° C | 58% | 989.7 hPa | - | - | - | - |
| 1777448573 | 13.33° C | 60% | 990.3 hPa | - | - | - | - |
| 1777444973 | 12.78° C | 62% | 990.6 hPa | - | - | - | - |
| 1777437772 | 12.78° C | 59% | 994.4 hPa | - | - | - | - |
| 1777434165 | 12.78° C | 60% | 990.4 hPa | - | - | - | - |
| 1777430572 | 12.78° C | 60% | 990.4 hPa | - | - | - | - |
| 1777426972 | 12.78° C | 61% | 990.4 hPa | - | - | - | - |
| 1777423372 | 13.33° C | 63% | 990.5 hPa | - | - | - | - |
| 1777419765 | 13.33° C | 63% | 990.5 hPa | - | - | - | - |
| 1777416165 | 13.89° C | 63% | 990.6 hPa | - | - | - | - |
| 1777408967 | 14.44° C | 65% | 990.2 hPa | - | - | - | - |
| 1777401770 | 15.56° C | 64% | 989.2 hPa | - | - | - | - |
| 1777394577 | 17.22° C | 60% | 995.1 hPa | - | - | - | - |
| 1777380167 | 16.67° C | 64% | 988.6 hPa | - | - | - | - |
| 1777372963 | 15.56° C | 67% | 989.4 hPa | - | - | - | - |
* Rain since midnight (hover to see other rain measurements)
** Current wind speed in m/s (hover to see current wind gust speed)